Regional Weather Roundup
Issued by NWS

Home | Current Version | Previous Version | Graphics & Text | Print | Product List | Glossary On
Versions: 1 2 3 4 5 6 7 8 9 10 11 12 13 14 15 16 17 18 19 20 21 22 23 24 25 26 27 28 29 30 31 32 33 34 35 36 37 38 39 40 41 42 43 44 45 46 47 48 49 50
000
ASUS43 KDMX 251307
RWRIA

WEATHER ROUNDUP FOR IOWA
NATIONAL WEATHER SERVICE DES MOINES IA
800 AM CDT MON MAY 25 2015

NOTE: "FAIR" INDICATES FEW OR NO CLOUDS BELOW 12,000 FEET WITH NO
SIGNIFICANT WEATHER AND/OR OBSTRUCTIONS TO VISIBILITY.

* - THESE STATIONS ARE NOT NWS STATIONS...THUS NOT UNDER NWS
QUALITY CONTROL.  THEY ALSO DO NOT REPORT WEATHER SUCH
AS PRECIPITATION OR FOG.

IAZ001>003-012>014-020>022-031>034-043>046-251400-
   NORTHWEST IOWA

CITY           SKY/WX    TMP DP  RH WIND       PRES   REMARKS
CARROLL *      MOSUNNY   64  63  94 SW16      29.79R
CHEROKEE *     CLOUDY    61  61 100 SW7       29.77R FOG
DENISON *      MOSUNNY   64  64 100 S9        29.77S
LE MARS *      CLOUDY    61  61 100 SW3       29.77R
ORANGE CITY *  CLOUDY    59  59 100 W5        29.75F FOG
SHELDON *      CLOUDY    61  57  88 W5        29.74S FOG
SIOUX CITY     FOG       60  59  96 CALM      29.77R VSB 1
SPENCER        CLOUDY    62  60  93 W12       29.76R
STORM LAKE *   CLOUDY    61  61 100 W8        29.78S FOG
$$

IAZ055>058-069>071-079>083-090>094-251400-
   SOUTHWEST IOWA

CITY           SKY/WX    TMP DP  RH WIND       PRES   REMARKS
ATLANTIC *     CLOUDY    63  61  94 S10       29.82S
AUDUBON *      PTSUNNY   63  61  94 S9        29.82S FOG
CLARINDA *     PTSUNNY   64  61  88 S14G24    29.88R
COUNCIL BLFS * CLOUDY    63  63 100 S13G20    29.82S
CRESTON *      CLOUDY    63  63 100 S12       29.85S
HARLAN  *      CLOUDY    63  63 100 S12       29.84R
LAMONI         LGT RAIN  65  61  87 SW9       29.88R
RED OAK *      CLOUDY    63  63 100 S16G26    29.85R
SHENANDOAH *   CLOUDY    63  61  94 S15G22    29.85R
$$

IAZ047>049-059>061-072>074-084-251400-
   CENTRAL IOWA

CITY           SKY/WX    TMP DP  RH WIND       PRES   REMARKS
AMES           PTSUNNY   64  62  93 SW18      29.80R
ANKENY *       PTSUNNY   64  64 100 SW9       29.82R
CHARITON *     CLOUDY    64  63  94 SW13G20   29.87R
DES MOINES     CLOUDY    65  62  90 SW16G22   29.83R
GRINNELL*      CLOUDY    63  61  94 SW13      29.83R
KNOXVILLE *    CLOUDY    63  61  94 SW10G20   29.84R
MARSHALLTOWN   LGT RAIN  63  62  97 SW10      29.78S
PELLA *        DRIZZLE   63  63 100 SW10      29.85R
PERRY *        CLOUDY    64  63  94 SW16      29.81R
$$

IAZ004>006-015-016-023>025-035-036-251400-
   NORTH CENTRAL IOWA

CITY           SKY/WX    TMP DP  RH WIND       PRES   REMARKS
ALGONA *       MOSUNNY   61  59  94 SW14      29.77R FOG
CLARION *      PTSUNNY   63  63 100 SW12      29.77R FOG
ESTHERVILLE    CLOUDY    60  58  92 W10       29.75R
FORT DODGE *   CLOUDY    63  59  88 SW8       29.79R
MASON CITY     CLOUDY    63  61  93 SW9       29.76R
FOREST CITY *  CLOUDY    61  61 100 SW8       29.74S FOG
IOWA FALLS *   LGT RAIN  63  61  94 SW14      29.79R
$$

IAZ007>011-017>019-026>030-037>042-050>054-066-251400-
   NORTHEAST IOWA

CITY           SKY/WX    TMP DP  RH WIND       PRES   REMARKS
CEDAR RAPIDS   CLOUDY    63  62  97 SW16      29.80R
CHARLES CITY * PTSUNNY   64  64 100 SW10      29.75S FOG
CLINTON *      PTSUNNY   66  61  82 SW16      29.84R
DECORAH *      CLOUDY    64  64 100 VRB7G13   29.74R
DUBUQUE        CLOUDY    64  62  93 SW16      29.78R
MONTICELLO *   CLOUDY    64  64 100 SW13      29.79R FOG
OELWEIN *      CLOUDY    63  63 100 SW13      29.78R
WATERLOO       CLOUDY    63  62  97 SW12      29.77R
$$

IAZ064-065-067-068-078-251400-
   EAST CENTRAL IOWA

CITY           SKY/WX    TMP DP  RH WIND       PRES   REMARKS
DAVENPORT      PTSUNNY   66  62  87 SW13      29.83R
IOWA CITY      CLOUDY    63  61  93 SW12G20   29.84R FOG
MT. PLEASANT * CLOUDY    64  63  94 SW8       29.86R
MUSCATINE *    CLOUDY    66  63  88 SW13G20   29.84R
QUAD CITIES    CLOUDY    67  62  84 SW15      29.83R
$$

IAZ062-063-075>077-085>089-095>099-251400-
   SOUTHEAST IOWA

CITY           SKY/WX    TMP DP  RH WIND       PRES   REMARKS
BURLINGTON     CLOUDY    64  63  96 SW8       29.86R
FAIRFIELD *    MOSUNNY   63  61  94 SW12      29.86R
FORT MADISON * CLOUDY    63  63 100 SW7       29.88S
KEOKUK *       CLOUDY    64  63  94 SW8       29.88R
OSKALOOSA *    CLOUDY    63  61  94 SW12      29.85R
CENTERVILLE *  PTSUNNY   63  63 100 SW15      29.91R
OTTUMWA        LGT RAIN  62  61  96 SW13      29.84R
WASHINGTON *   LGT RAIN  63  61  94 SW10      29.86R
$$

ABBREVIATIONS USED IN REMARKS
   TC - TEMPERATURES IN CELSIUS
  WCI - WIND CHILL INDEX
   HX - HEAT INDEX
  VSB - VISIBILITY
$$




USA.gov is the U.S. government's official web portal to all federal, state and local government web resources and services.